[[{"header":{"parameterUnit":"m.s-1","parameterCategory":1,"la1":30.2991,"la2":30.254,"lo1":-89.0895,"lo2":-89.0444,"dy":0.0017,"dx":0.0017,"nx":28,"ny":28,"refTime":"2023-09-04T09:00:00:Z","depth":0,"parameterNumber":2,"parameterNumberName":"U-component_of_WINDS"},"data":[0,0,0,0,0,0,0,0,0,0,0,0,0,0,0,0,0,0,0,0,0,0,0,0,0,0,0,0,0,0,0,0,0,0,0,0,0,0,0,0,0,0,0,0,0,0,0,0,0,0,0,0,0,0,0,0,0,0,-3.3618,-3.3619,0,-3.375,-3.3751,-3.3753,-3.3741,-3.3738,-3.3736,-3.3735,-3.3872,-3.3877,-3.3883,0,0,0,0,0,0,0,0,0,0,0,0,0,-3.3356,-3.3361,-3.3617,-3.3619,-3.3621,-3.3749,-3.3751,-3.3753,-3.3741,-3.3738,-3.3736,-3.3734,-3.387,-3.3876,-3.3883,0,0,0,0,0,0,0,0,0,0,0,0,0,-3.3477,-3.3363,-3.3617,-3.363,-3.3633,-3.3749,-3.3751,-3.3753,-3.3741,-3.3738,-3.3735,-3.3732,-3.3868,-3.3876,-3.3884,-3.3997,0,0,-3.391,-3.3913,0,0,0,0,0,0,0,0,-3.347,-3.3487,-3.3627,-3.363,-3.3632,-3.3725,-3.3709,-3.3835,-3.3742,-3.37,-3.3734,-3.3731,-3.3826,-3.3837,-3.3869,-3.4003,-3.4009,-3.391,-3.3915,-3.3919,-3.3921,0,0,0,0,0,0,0,-3.3462,-3.3481,-3.367,-3.3629,-3.3632,-3.363,-3.3644,-3.3733,-3.3779,-3.3704,-3.3703,-3.3719,-3.3827,-3.3861,-3.3872,-3.4011,-3.391,-3.3917,-3.3923,-3.3926,-3.4242,-3.4246,0,0,0,0,0,0,-3.345,-3.3474,-3.3666,-3.3674,-3.3542,-3.3637,-3.3652,-3.3699,-3.3778,-3.3787,-3.3721,-3.3718,-3.3848,-3.3862,-3.3877,-3.4012,-3.3919,-3.3927,-3.3931,-3.4239,-3.4243,-3.4247,0,0,0,0,0,0,-3.3445,-3.3467,-3.366,-3.3574,-3.3598,-3.3645,-3.3697,-3.3703,-3.3737,-3.3791,-3.3799,-3.3748,-3.3846,-3.3865,-3.3966,-3.4016,-3.393,-3.3938,-3.4235,-3.424,-3.4245,-3.4284,0,0,0,0,0,0,-3.3437,-3.3466,-3.3508,-3.3575,-3.3603,-3.3747,-3.37,-3.3708,-3.3751,-3.3748,-3.3818,-3.3826,-3.3845,-3.3954,-3.3975,-3.4026,-3.3944,-3.4231,-3.4237,-3.4243,-3.4278,-3.429,-3.4299,0,0,0,0,0,-3.3428,-3.3515,-3.3511,-3.3534,-3.3657,-3.375,-3.3766,-3.3786,-3.3755,-3.3799,-3.3833,-3.3824,-3.4008,-3.3964,-3.3988,-3.4043,-3.4227,-3.4235,-3.4243,-3.4273,-3.4287,-3.4299,0,0,0,0,0,0,-3.3454,-3.3524,-3.352,-3.3631,-3.3685,-3.3748,-3.3803,-3.38,-3.3864,-3.3858,-3.3881,-3.3896,-3.3998,-3.4031,-3.3981,-3.4155,-3.4114,-3.4126,-3.4129,-3.4143,-3.4153,-3.4142,-3.3951,0,0,0,0,0,-3.3473,-3.3542,-3.36,-3.3692,-3.3719,-3.3757,-3.3798,-3.3808,-3.3865,-3.3888,-3.393,-3.3986,-3.4056,-3.4102,-3.4169,-3.4284,-3.4298,-3.4333,-3.4344,-3.4352,-3.4362,-3.4423,-3.4439,-3.4272,-3.4272,-3.4272,0,0,-3.3512,-3.3559,-3.3601,-3.3698,-3.3741,-3.3812,-3.3776,-3.3853,-3.3906,-3.39,-3.3997,-3.403,-3.4094,-3.4201,-3.4251,-3.4232,-3.4411,-3.4362,-3.4368,-3.4374,-3.4433,-3.4448,-3.4462,-3.4277,-3.4276,-3.4275,0,0,-3.362,-3.3663,-3.3743,-3.3787,-3.3851,-3.3876,-3.3895,-3.3959,-3.398,-3.4078,-3.4074,-3.4138,-3.4259,-3.4304,-3.4343,-3.4467,-3.446,-3.4488,-3.4543,-3.4602,-3.4615,-3.4627,-3.4669,-3.4684,-3.4499,-3.4499,-3.4499,0,-3.366,-3.3766,-3.3785,-3.3862,-3.3905,-3.3902,-3.3983,-3.4025,-3.4109,-3.4138,-3.4116,-3.4266,-3.4309,-3.4427,-3.4456,-3.4489,-3.4511,-3.4479,-3.4612,-3.4624,-3.4635,-3.4675,-3.4691,-3.4502,-3.4501,-3.4501,-3.4501,0,-3.3812,-3.3886,-3.3944,-3.4023,-3.4072,-3.4151,-3.4182,-3.423,-3.4236,-3.4263,-3.4362,-3.4414,-3.4491,-3.452,-3.4528,-3.4638,-3.4624,-3.4607,-3.4565,-3.4653,-3.4691,-3.4707,-3.4506,-3.4505,-3.4504,-3.4503,0,0,-3.3939,-3.4027,-3.4048,-3.4083,-3.4154,-3.4212,-3.4291,-3.4365,-3.4405,-3.4463,-3.4529,-3.4631,-3.4615,-3.4659,-3.4672,-3.4724,-3.4816,-3.47,-3.4702,-3.4718,-3.4939,-3.495,-3.4968,-3.4813,-3.4816,-3.4819,-3.4933,0,-3.4052,-3.419,-3.4209,-3.4331,-3.4399,-3.4397,-3.4466,-3.4517,-3.4544,-3.4606,-3.4636,-3.4707,-3.4682,-3.4708,-3.476,-3.4794,-3.4861,-3.4786,-3.4874,-3.4877,-3.4855,-3.4988,-3.5,-3.5106,-3.4948,-3.4951,-3.4953,0,-3.4202,-3.4262,-3.4391,-3.4451,-3.448,-3.4541,-3.461,-3.4669,-3.4727,-3.4743,-3.4792,-3.4798,-3.4879,-3.4836,-3.4948,-3.4897,-3.4934,-3.4957,-3.4961,-3.4968,-3.4918,-3.4997,-3.514,-3.5155,-3.4977,-3.4975,-3.4973,0,-3.4279,-3.4393,-3.4483,-3.4514,-3.4587,-3.463,-3.4662,-3.4717,-3.476,-3.4821,-3.4849,-3.4919,-3.4957,-3.5012,-3.5036,-3.5003,-3.5146,-3.5106,-3.5161,-3.516,-3.519,-3.5187,-3.5339,-3.5218,-3.5217,-3.5217,-3.5217,0,-3.4401,-3.4479,-3.4518,-3.4574,-3.4662,-3.4683,-3.4769,-3.4801,-3.4849,-3.4911,-3.4915,-3.4973,-3.5003,-3.5066,-3.5086,-3.5175,-3.5193,-3.5207,-3.5211,-3.5206,-3.5204,-3.5229,-3.5221,-3.5221,-3.522,-3.522,-3.5219,0,-3.4501,-3.4531,-3.4629,-3.469,-3.4707,-3.4768,-3.482,-3.4874,-3.4901,-3.4979,-3.4999,-3.5041,-3.5115,-3.5145,-3.5237,-3.525,-3.5351,-3.5351,-3.5331,-3.5332,-3.5385,-3.5378,-3.5556,-3.5579,-3.5445,-3.5446,-3.5447,0,-3.4576,-3.4636,-3.4702,-3.4743,-3.4776,-3.4843,-3.4886,-3.491,-3.4955,-3.5025,-3.5071,-3.5144,-3.5204,-3.5322,-3.5361,-3.5431,-3.5431,-3.5488,-3.5441,-3.5433,-3.5429,-3.5424,-3.5429,-3.5496,-3.5498,-3.5499,-3.55,0,-3.4706,-3.4717,-3.4779,-3.4846,-3.4897,-3.4951,-3.5004,-3.5038,-3.507,-3.512,-3.5195,-3.5241,-3.5334,-3.5406,-3.5478,-3.5512,-3.5511,-3.5514,-3.553,-3.5524,-3.5509,-3.5516,-3.5352,-3.551,-3.5509,-3.5508,-3.5507,-3.5507,-3.4794,-3.4846,-3.49,-3.4969,-3.5011,-3.506,-3.5113,-3.5145,-3.5208,-3.5283,-3.5294,-3.5374,-3.543,-3.5525,-3.5562,-3.5625,-3.561,-3.5634,-3.564,-3.5645,-3.5647,-3.5501,-3.5639,-3.5638,-3.5638,-3.5638,-3.5638,0,-3.4922,-3.4956,-3.5019,-3.5092,-3.5145,-3.5139,-3.5197,-3.5243,-3.5312,-3.5364,-3.5422,-3.5507,-3.5578,-3.5622,-3.5693,-3.5734,-3.5736,-3.5752,-3.5748,-3.5756,-3.5657,-3.5635,-3.575,-3.575,-3.575,-3.575,-3.575,-3.575,-3.4995,-3.5081,-3.5099,-3.5207,-3.5241,-3.5318,-3.5351,-3.5396,-3.5437,-3.5532,-3.5589,-3.5617,-3.5666,-3.574,-3.5804,-3.5816,-3.5841,-3.5858,-3.5868,-3.5775,-3.5763,-3.5752,-3.5731,-3.5863,-3.5864,-3.596,-3.5961,-3.5962]},{"header":{"parameterUnit":"m.s-1","parameterCategory":1,"la1":30.2991,"la2":30.254,"lo1":-89.0895,"lo2":-89.0444,"dy":0.0017,"dx":0.0017,"nx":28,"ny":28,"refTime":"2023-09-04T09:00:00:Z","depth":0,"parameterNumber":3,"parameterNumberName":"V-component_of_WINDS"},"data":[0,0,0,0,0,0,0,0,0,0,0,0,0,0,0,0,0,0,0,0,0,0,0,0,0,0,0,0,0,0,0,0,0,0,0,0,0,0,0,0,0,0,0,0,0,0,0,0,0,0,0,0,0,0,0,0,0,0,1.8582,1.8582,0,1.8612,1.8612,1.8613,1.8579,1.8577,1.8576,1.8575,1.8605,1.8607,1.8608,0,0,0,0,0,0,0,0,0,0,0,0,0,1.8494,1.8496,1.8582,1.8582,1.8583,1.8612,1.8612,1.8613,1.8579,1.8577,1.8576,1.8574,1.8604,1.8606,1.8609,0,0,0,0,0,0,0,0,0,0,0,0,0,1.8529,1.8496,1.8582,1.8569,1.8568,1.8612,1.8612,1.8613,1.8579,1.8577,1.8575,1.8574,1.8603,1.8606,1.8609,1.8666,0,0,1.8618,1.8619,0,0,0,0,0,0,0,0,1.8527,1.8532,1.8571,1.857,1.8569,1.859,1.8592,1.8631,1.858,1.8575,1.8575,1.8573,1.8601,1.8604,1.8614,1.8667,1.8669,1.8618,1.862,1.8621,1.8622,0,0,0,0,0,0,0,1.8525,1.8531,1.8594,1.8571,1.857,1.8562,1.8565,1.8599,1.8598,1.8575,1.8573,1.8577,1.86,1.8611,1.8614,1.8669,1.8618,1.8621,1.8623,1.8624,1.877,1.8772,0,0,0,0,0,0,1.8524,1.8529,1.8593,1.8595,1.8543,1.8565,1.8568,1.8585,1.8598,1.8598,1.8579,1.8575,1.8607,1.8611,1.8615,1.8682,1.8621,1.8624,1.8626,1.8768,1.877,1.8772,0,0,0,0,0,0,1.8522,1.853,1.8591,1.8561,1.8568,1.8569,1.8588,1.8587,1.8597,1.8601,1.86,1.859,1.8606,1.8611,1.8653,1.8682,1.8626,1.8628,1.8765,1.8768,1.8771,1.8815,0,0,0,0,0,0,1.852,1.8529,1.8551,1.8562,1.857,1.8629,1.859,1.8589,1.8603,1.8599,1.8611,1.8611,1.8605,1.8649,1.8656,1.8685,1.8631,1.8762,1.8767,1.877,1.8811,1.8819,1.8827,0,0,0,0,0,1.8517,1.8562,1.8552,1.856,1.8597,1.8631,1.8636,1.8628,1.8605,1.8627,1.8629,1.8611,1.8679,1.8654,1.8662,1.8692,1.8761,1.8765,1.877,1.8808,1.8818,1.8826,0,0,0,0,0,0,1.8554,1.8563,1.8552,1.8603,1.8617,1.8625,1.8652,1.8639,1.8659,1.8654,1.8643,1.8646,1.8691,1.8696,1.8668,1.8747,1.8716,1.8722,1.8742,1.8751,1.8759,1.8756,1.8633,0,0,0,0,0,1.8568,1.8596,1.8602,1.8646,1.8653,1.8652,1.8666,1.8659,1.8672,1.8678,1.8683,1.8697,1.8721,1.8737,1.8759,1.8813,1.8814,1.8837,1.8845,1.8851,1.8856,1.8884,1.8894,1.8788,1.8788,1.8788,0,0,1.8598,1.8606,1.8624,1.8654,1.8663,1.8691,1.8657,1.8688,1.8708,1.8682,1.8722,1.8727,1.8741,1.8789,1.881,1.8795,1.8886,1.8857,1.8862,1.8864,1.889,1.89,1.8909,1.8791,1.879,1.879,0,0,1.8665,1.8675,1.8712,1.8723,1.8738,1.8737,1.8746,1.8757,1.8759,1.8799,1.878,1.8805,1.8847,1.8857,1.8868,1.8941,1.8924,1.8949,1.8988,1.9015,1.9023,1.9031,1.9055,1.9064,1.8954,1.8954,1.8955,0,1.8699,1.8741,1.8733,1.8765,1.8778,1.8757,1.8794,1.8805,1.8827,1.8836,1.8819,1.8871,1.888,1.8929,1.8947,1.8957,1.8966,1.8946,1.9023,1.903,1.9037,1.906,1.9069,1.8957,1.8957,1.8957,1.8956,0,1.8781,1.8811,1.8839,1.886,1.8877,1.8912,1.8909,1.8927,1.8919,1.8919,1.896,1.897,1.8993,1.9005,1.8997,1.9053,1.9043,1.9025,1.8992,1.905,1.9071,1.908,1.8961,1.896,1.8959,1.8959,0,0,1.8871,1.8889,1.8899,1.8908,1.8924,1.8946,1.898,1.9004,1.9019,1.9035,1.9062,1.9099,1.9082,1.9095,1.9088,1.9112,1.9167,1.9091,1.9091,1.9103,1.9228,1.924,1.9251,1.9158,1.9159,1.9161,1.9226,0,1.8937,1.8996,1.899,1.9045,1.9071,1.9052,1.9082,1.9094,1.9096,1.9118,1.9121,1.9146,1.9123,1.913,1.9153,1.9156,1.9192,1.9151,1.9181,1.9182,1.9176,1.9262,1.9275,1.9336,1.9235,1.9236,1.9237,0,1.9022,1.9041,1.9099,1.911,1.9121,1.9148,1.9168,1.9191,1.9205,1.9204,1.9219,1.9208,1.9242,1.9211,1.9256,1.9228,1.9241,1.9244,1.9246,1.9247,1.9212,1.9263,1.9356,1.9364,1.9251,1.9249,1.9249,0,1.9079,1.912,1.9159,1.9168,1.9183,1.9202,1.9209,1.9222,1.9236,1.9255,1.9264,1.9286,1.9298,1.9315,1.9311,1.9289,1.9357,1.9326,1.9356,1.9356,1.9369,1.9368,1.9463,1.9381,1.9381,1.9381,1.9381,0,1.9152,1.9188,1.9185,1.9209,1.9249,1.9242,1.9281,1.9286,1.9297,1.9321,1.9308,1.9331,1.9325,1.9347,1.9345,1.9382,1.9388,1.9387,1.9386,1.9387,1.9387,1.9393,1.9388,1.9384,1.9383,1.9382,1.9382,0,1.9222,1.9222,1.9263,1.9275,1.9278,1.9307,1.9316,1.9338,1.934,1.9371,1.9378,1.938,1.9406,1.9404,1.9434,1.9431,1.9477,1.9471,1.9472,1.947,1.95,1.9496,1.9601,1.9613,1.9525,1.9526,1.9527,0,1.9267,1.9294,1.9309,1.9324,1.9332,1.9358,1.9372,1.9367,1.9383,1.9402,1.9422,1.9447,1.9466,1.9509,1.9513,1.9535,1.9529,1.9564,1.9532,1.9532,1.9527,1.9524,1.9526,1.9569,1.957,1.9571,1.9572,0,1.9348,1.9346,1.9368,1.9391,1.9409,1.9426,1.9441,1.9455,1.9452,1.947,1.9497,1.9512,1.9543,1.9567,1.9589,1.9596,1.9583,1.9582,1.959,1.9591,1.9589,1.9589,1.9487,1.9579,1.9579,1.9578,1.9578,1.9577,1.9405,1.9428,1.9441,1.9466,1.9478,1.9493,1.9514,1.9519,1.9541,1.9565,1.9561,1.9591,1.9604,1.9632,1.9641,1.9664,1.9651,1.9663,1.9666,1.9668,1.9671,1.9588,1.9668,1.9668,1.9668,1.9668,1.9667,0,1.9483,1.9491,1.9514,1.9536,1.9556,1.9544,1.9561,1.9577,1.9604,1.9618,1.9637,1.9668,1.9692,1.9698,1.9721,1.9738,1.9733,1.9744,1.9742,1.9743,1.9682,1.9672,1.9748,1.9748,1.9748,1.9748,1.9748,1.9748,1.9525,1.9563,1.9563,1.9606,1.9614,1.9643,1.9653,1.9667,1.9678,1.9713,1.9733,1.9737,1.9748,1.9771,1.9793,1.9794,1.9802,1.9815,1.9814,1.9756,1.9748,1.974,1.973,1.9818,1.9818,1.9873,1.9874,1.9874]}]]